Weather History for LIRQ - October, 2012

Change the Weather History Date:

Monday, October 29, 2012

  Actual Average Record
Temperature  
Mean Temperature 45 °F -  
Max Temperature 53 °F 59 °F 77 °F (2013)
Min Temperature 37 °F 42 °F 35 °F (2010)
Degree Days  
Heating Degree Days 20    
Moisture  
Dew Point 37 °F    
Average Humidity 70    
Maximum Humidity 87    
Minimum Humidity 50    
Precipitation  
Precipitation 0.00 in 0.14 in - ()
Sea Level Pressure  
Sea Level Pressure 29.75 in    
Wind  
Wind Speed 6 mph ()    
Max Wind Speed 14 mph    
Max Gust Speed 25 mph    
Visibility 6.2 miles    
Events      
Averages and records for this station are not official NWS values.
T = Trace of Precipitation, MM = Missing Value Source: Averaged Metar Reports

Daily Weather History Graph

Daily Weather History Graph

Search for Another Location

Airport or City:

Trip Planner

Search our weather history database for the weather conditions in past years. The results will help you decide how hot, cold, wet, or windy it might be!

Date:

Astronomy

Oct. 29, 2012 Rise Set
Actual Time 6:47 AM CET 5:09 PM CET
Civil Twilight 6:17 AM CET 5:39 PM CET
Nautical Twilight 5:44 AM CET 6:13 PM CET
Astronomical Twilight 5:10 AM CET 6:46 PM CET
Moon 4:50 PM CET (10/29) 6:22 AM CET (10/29)
Length of Visible Light 11h 21m
Length of Day
10h 21m
Full, 100% of the Moon is Illuminated
Oct 29
Full
Oct 29
Full
Nov 7
Last Quarter
Nov 13
New
Nov 20
First Quarter

Hourly Weather History & Observations

Time (CET) Temp. Windchill Dew Point Humidity Pressure Visibility Wind Dir Wind Speed Gust Speed Precip Events Conditions
12:20 AM 44.6 °F 39.2 °F 41.0 °F 87% 29.56 in 6.2 mi NE 10.4 mph - N/A   Light Drizzle
12:50 AM 44.6 °F 38.8 °F 39.2 °F 81% 29.59 in 6.2 mi NE 11.5 mph - N/A   Mostly Cloudy
1:20 AM 44.6 °F 39.7 °F 39.2 °F 81% 29.59 in 6.2 mi NNE 9.2 mph - N/A   Mostly Cloudy
1:50 AM 44.6 °F 43.1 °F 39.2 °F 81% 29.59 in 6.2 mi NW 3.5 mph - N/A   Mostly Cloudy
2:20 AM 46.4 °F - 39.2 °F 76% 29.62 in 6.2 mi Variable 2.3 mph - N/A   Light Drizzle
2:50 AM 44.6 °F 43.1 °F 39.2 °F 81% 29.62 in 6.2 mi ENE 3.5 mph - N/A   Mostly Cloudy
3:20 AM 46.4 °F 45.2 °F 39.2 °F 76% 29.62 in 6.2 mi NNW 3.5 mph - N/A   Mostly Cloudy
3:50 AM 46.4 °F 45.2 °F 37.4 °F 71% 29.62 in 6.2 mi Variable 3.5 mph - N/A   Mostly Cloudy
4:20 AM 46.4 °F - 37.4 °F 71% 29.62 in 6.2 mi Variable 2.3 mph - N/A   Mostly Cloudy
4:50 AM 44.6 °F 40.7 °F 41.0 °F 87% 29.62 in 6.2 mi SSW 6.9 mph - N/A   Mostly Cloudy
5:20 AM 44.6 °F 42.2 °F 41.0 °F 87% 29.62 in 6.2 mi South 4.6 mph - N/A   Light Drizzle
5:50 AM 44.6 °F 40.7 °F 41.0 °F 87% 29.62 in 6.2 mi SSW 6.9 mph - N/A   Light Drizzle
6:20 AM 46.4 °F 42.9 °F 39.2 °F 76% 29.65 in 6.2 mi SSW 6.9 mph - N/A   Mostly Cloudy
6:50 AM 46.4 °F 41.1 °F 39.2 °F 76% 29.65 in 6.2 mi West 11.5 mph - N/A   Mostly Cloudy
7:20 AM 46.4 °F 41.9 °F 37.4 °F 71% 29.68 in 6.2 mi WNW 9.2 mph - N/A   Mostly Cloudy
7:50 AM 46.4 °F 43.5 °F 37.4 °F 71% 29.68 in 6.2 mi West 5.8 mph - N/A   Mostly Cloudy
8:20 AM 46.4 °F 40.7 °F 37.4 °F 71% 29.71 in 6.2 mi WNW 12.7 mph - N/A   Scattered Clouds
8:50 AM 48.2 °F - 39.2 °F 71% 29.71 in 6.2 mi WNW 10.4 mph - N/A   Scattered Clouds
9:20 AM 50.0 °F - 39.2 °F 66% 29.74 in 6.2 mi Variable 4.6 mph - N/A   Scattered Clouds
9:50 AM 50.0 °F - 39.2 °F 66% 29.74 in 6.2 mi NW 8.1 mph - N/A   Scattered Clouds
10:20 AM 48.2 °F - 37.4 °F 66% 29.77 in 6.2 mi NNW 13.8 mph 25.3 mph N/A   Mostly Cloudy
10:50 AM 48.2 °F - 37.4 °F 66% 29.77 in 6.2 mi NW 9.2 mph - N/A   Mostly Cloudy
11:20 AM 50.0 °F - 37.4 °F 62% 29.77 in 6.2 mi NW 9.2 mph - N/A   Scattered Clouds
11:50 AM 51.8 °F - 37.4 °F 58% 29.77 in 6.2 mi North 9.2 mph 20.7 mph N/A   Scattered Clouds
12:20 PM 51.8 °F - 35.6 °F 54% 29.77 in 6.2 mi NNW 12.7 mph - N/A   Scattered Clouds
12:50 PM 51.8 °F - 37.4 °F 58% 29.77 in 6.2 mi NNW 6.9 mph - N/A   Partly Cloudy
1:20 PM 51.8 °F - 35.6 °F 54% 29.77 in 6.2 mi NNW 9.2 mph - N/A   Partly Cloudy
1:50 PM 50.0 °F - 37.4 °F 62% 29.77 in 6.2 mi NW 8.1 mph - N/A   Scattered Clouds
2:20 PM 51.8 °F - 37.4 °F 58% 29.80 in - NNW 10.4 mph - N/A   Clear
2:50 PM 53.6 °F - 35.6 °F 51% 29.80 in - NNW 4.6 mph - N/A   Clear
3:20 PM 53.6 °F - 35.6 °F 51% 29.80 in - Variable 2.3 mph - N/A   Clear
3:50 PM 51.8 °F - 35.6 °F 54% 29.80 in - ENE 8.1 mph - N/A   Clear
4:20 PM 51.8 °F - 33.8 °F 50% 29.80 in - NNE 4.6 mph - N/A   Clear
4:50 PM 50.0 °F - 33.8 °F 54% 29.80 in - Calm Calm - N/A   Clear
5:20 PM 50.0 °F - 33.8 °F 54% 29.83 in - Variable 2.3 mph - N/A   Clear
5:50 PM 46.4 °F 44.3 °F 33.8 °F 62% 29.83 in - NNE 4.6 mph - N/A   Clear
6:20 PM 44.6 °F 41.4 °F 33.8 °F 66% 29.83 in - ENE 5.8 mph - N/A   Clear
6:50 PM 44.6 °F 42.2 °F 35.6 °F 71% 29.86 in 6.2 mi NE 4.6 mph - N/A   Partly Cloudy
7:20 PM 46.4 °F 43.5 °F 35.6 °F 66% 29.86 in 6.2 mi Variable 5.8 mph - N/A   Scattered Clouds
7:50 PM 44.6 °F 43.1 °F 33.8 °F 66% 29.86 in 6.2 mi East 3.5 mph - N/A   Scattered Clouds
8:20 PM 42.8 °F - 35.6 °F 76% 29.89 in 6.2 mi ESE 2.3 mph - N/A   Scattered Clouds
8:50 PM 41.0 °F 39.0 °F 33.8 °F 76% 29.89 in 6.2 mi ESE 3.5 mph - N/A   Partly Cloudy
9:20 PM 42.8 °F - 35.6 °F 76% 29.89 in 6.2 mi SW 2.3 mph - N/A   Partly Cloudy
9:50 PM 39.2 °F 37.0 °F 35.6 °F 87% 29.89 in 6.2 mi NE 3.5 mph - N/A   Partly Cloudy
10:20 PM 39.2 °F - 35.6 °F 87% 29.92 in 6.2 mi NNE 1.2 mph - N/A   Partly Cloudy
10:50 PM 37.4 °F - 33.8 °F 87% 29.92 in 6.2 mi Variable 2.3 mph - N/A   Partly Cloudy
11:20 PM 37.4 °F - 33.8 °F 87% 29.92 in 6.2 mi Calm Calm - N/A   Partly Cloudy
11:50 PM 37.4 °F - 33.8 °F 87% 29.92 in - NE 2.3 mph - N/A   Clear